#Datum;Uhrzeit;WR;Pac;DaySum;Status;WR;Pac;DaySum;Status;Pdc1;Udc;Temp;WR;Pac;DaySum;Status;Pdc1;Udc;Temp;WR;Pac;DaySum;Status;Pdc1;Udc;Temp;WR;Pac;DaySum;Status;Pdc1;Pdc2;Udc1;Udc2;Temp;WR;Pac;DaySum;Status;Pdc1;Pdc2;Udc1;Udc2;Temp;WR;Pac;DaySum;Status;Pdc1;Udc;Temp;WR;Pac;DaySum;Status;Pdc1;Udc;Temp;WR;Pac;DaySum;Status;Pdc1;Udc;Temp
26.01.20;23:55:00;1;334;12720;0;2;0;4390;0;0;0;0;3;0;2737;0;0;0;0;4;0;3811;0;0;0;0;5;0;9200;0;0;0;0;0;0;6;0;6873;0;0;0;0;0;0;7;0;4770;0;0;0;0;8;0;4197;0;0;0;0;9;0;2570;0;0;0;0
26.01.20;23:50:00;1;287;12692;0;2;0;4390;0;0;0;0;3;0;2737;0;0;0;0;4;0;3811;0;0;0;0;5;0;9200;0;0;0;0;0;0;6;0;6873;0;0;0;0;0;0;7;0;4770;0;0;0;0;8;0;4197;0;0;0;0;9;0;2570;0;0;0;0
26.01.20;23:45:00;1;268;12668;0;2;0;4390;0;0;0;0;3;0;2737;0;0;0;0;4;0;3811;0;0;0;0;5;0;9200;0;0;0;0;0;0;6;0;6873;0;0;0;0;0;0;7;0;4770;0;0;0;0;8;0;4197;0;0;0;0;9;0;2570;0;0;0;0
26.01.20;23:40:00;1;267;12620;0;2;0;4390;0;0;0;0;3;0;2737;0;0;0;0;4;0;3811;0;0;0;0;5;0;9200;0;0;0;0;0;0;6;0;6873;0;0;0;0;0;0;7;0;4770;0;0;0;0;8;0;4197;0;0;0;0;9;0;2570;0;0;0;0
26.01.20;23:35:00;1;303;12597;0;2;0;4390;0;0;0;0;3;0;2737;0;0;0;0;4;0;3811;0;0;0;0;5;0;9200;0;0;0;0;0;0;6;0;6873;0;0;0;0;0;0;7;0;4770;0;0;0;0;8;0;4197;0;0;0;0;9;0;2570;0;0;0;0
26.01.20;23:30:00;1;958;12563;0;2;0;4390;0;0;0;0;3;0;2737;0;0;0;0;4;0;3811;0;0;0;0;5;0;9200;0;0;0;0;0;0;6;0;6873;0;0;0;0;0;0;7;0;4770;0;0;0;0;8;0;4197;0;0;0;0;9;0;2570;0;0;0;0
26.01.20;23:25:00;1;268;12521;0;2;0;4390;0;0;0;0;3;0;2737;0;0;0;0;4;0;3811;0;0;0;0;5;0;9200;0;0;0;0;0;0;6;0;6873;0;0;0;0;0;0;7;0;4770;0;0;0;0;8;0;4197;0;0;0;0;9;0;2570;0;0;0;0
26.01.20;23:20:00;1;272;12498;0;2;0;4390;0;0;0;0;3;0;2737;0;0;0;0;4;0;3811;0;0;0;0;5;0;9200;0;0;0;0;0;0;6;0;6873;0;0;0;0;0;0;7;0;4770;0;0;0;0;8;0;4197;0;0;0;0;9;0;2570;0;0;0;0
26.01.20;23:15:00;1;609;12476;0;2;0;4390;0;0;0;0;3;0;2737;0;0;0;0;4;0;3811;0;0;0;0;5;0;9200;0;0;0;0;0;0;6;0;6873;0;0;0;0;0;0;7;0;4770;0;0;0;0;8;0;4197;0;0;0;0;9;0;2570;0;0;0;0
26.01.20;23:10:00;1;296;12421;0;2;0;4390;0;0;0;0;3;0;2737;0;0;0;0;4;0;3811;0;0;0;0;5;0;9200;0;0;0;0;0;0;6;0;6873;0;0;0;0;0;0;7;0;4770;0;0;0;0;8;0;4197;0;0;0;0;9;0;2570;0;0;0;0
26.01.20;23:07:00;1;297;12411;0;2;0;4390;0;0;0;0;3;0;2737;0;0;0;0;4;0;3811;0;0;0;0;5;0;9200;0;0;0;0;0;0;6;0;6873;0;0;0;0;0;0;7;0;4770;0;0;0;0;8;0;4197;0;0;0;0;9;0;2570;0;0;0;0
26.01.20;23:00:00;1;724;12367;0;2;0;4390;0;0;0;0;3;0;2737;0;0;0;0;4;0;3811;0;0;0;0;5;0;9200;0;0;0;0;0;0;6;0;6873;0;0;0;0;0;0;7;0;4770;0;0;0;0;8;0;4197;0;0;0;0;9;0;2570;0;0;0;0
26.01.20;22:55:00;1;313;12308;0;2;0;4390;0;0;0;0;3;0;2737;0;0;0;0;4;0;3811;0;0;0;0;5;0;9200;2;0;0;0;0;0;6;0;6873;2;0;0;0;0;0;7;0;4770;0;0;0;0;8;0;4197;0;0;0;0;9;0;2570;0;0;0;0
26.01.20;22:50:00;1;313;12282;0;2;0;4390;0;0;0;0;3;0;2737;0;0;0;0;4;0;3811;0;0;0;0;5;0;9200;2;0;0;0;0;0;6;0;6873;2;0;0;0;0;0;7;0;4770;0;0;0;0;8;0;4197;0;0;0;0;9;0;2570;0;0;0;0
26.01.20;22:45:00;1;660;12255;0;2;0;4390;0;0;0;0;3;0;2737;0;0;0;0;4;0;3811;0;0;0;0;5;0;9200;2;0;0;0;0;0;6;0;6873;2;0;0;0;0;0;7;0;4770;0;0;0;0;8;0;4197;0;0;0;0;9;0;2570;0;0;0;0
26.01.20;22:40:00;1;328;12201;0;2;0;4390;0;0;0;0;3;0;2737;0;0;0;0;4;0;3811;0;0;0;0;5;0;9200;2;0;0;0;0;0;6;0;6873;2;0;0;0;0;0;7;0;4770;0;0;0;0;8;0;4197;0;0;0;0;9;0;2570;0;0;0;0
26.01.20;22:35:00;1;325;12174;0;2;0;4390;0;0;0;0;3;0;2737;0;0;0;0;4;0;3811;0;0;0;0;5;0;9200;2;0;0;0;0;0;6;0;6873;2;0;0;0;0;0;7;0;4770;0;0;0;0;8;0;4197;0;0;0;0;9;0;2570;0;0;0;0
26.01.20;22:30:00;1;1014;12146;0;2;0;4390;0;0;0;0;3;0;2737;0;0;0;0;4;0;3811;0;0;0;0;5;0;9200;2;0;0;0;0;0;6;0;6873;2;0;0;0;0;0;7;0;4770;0;0;0;0;8;0;4197;0;0;0;0;9;0;2570;0;0;0;0
26.01.20;22:25:00;1;456;12087;0;2;0;4390;0;0;0;0;3;0;2737;0;0;0;0;4;0;3811;0;0;0;0;5;0;9200;2;0;0;0;0;0;6;0;6873;2;0;0;0;0;0;7;0;4770;0;0;0;0;8;0;4197;0;0;0;0;9;0;2570;0;0;0;0
26.01.20;22:20:00;1;434;12049;0;2;0;4390;0;0;0;0;3;0;2737;0;0;0;0;4;0;3811;0;0;0;0;5;0;9200;2;0;0;0;0;0;6;0;6873;2;0;0;0;0;0;7;0;4770;0;0;0;0;8;0;4197;0;0;0;0;9;0;2570;0;0;0;0
26.01.20;22:15:00;1;1839;12013;0;2;0;4390;0;0;0;0;3;0;2737;0;0;0;0;4;0;3811;0;0;0;0;5;0;9200;2;0;0;0;0;0;6;0;6873;2;0;0;0;0;0;7;0;4770;0;0;0;0;8;0;4197;0;0;0;0;9;0;2570;0;0;0;0
26.01.20;22:10:00;1;427;11882;0;2;0;4390;0;0;0;0;3;0;2737;0;0;0;0;4;0;3811;0;0;0;0;5;0;9200;2;0;0;0;0;0;6;0;6873;2;0;0;0;0;0;7;0;4770;0;0;0;0;8;0;4197;0;0;0;0;9;0;2570;0;0;0;0
26.01.20;22:05:00;1;439;11846;0;2;0;4390;0;0;0;0;3;0;2737;0;0;0;0;4;0;3811;0;0;0;0;5;0;9200;2;0;0;0;0;0;6;0;6873;2;0;0;0;0;0;7;0;4770;0;0;0;0;8;0;4197;0;0;0;0;9;0;2570;0;0;0;0
26.01.20;22:00:00;1;1147;11809;0;2;0;4390;0;0;0;0;3;0;2737;0;0;0;0;4;0;3811;0;0;0;0;5;0;9200;2;0;0;0;0;0;6;0;6873;2;0;0;0;0;0;7;0;4770;0;0;0;0;8;0;4197;0;0;0;0;9;0;2570;0;0;0;0
26.01.20;21:55:00;1;472;11742;0;2;0;4390;0;0;0;0;3;0;2737;0;0;0;0;4;0;3811;0;0;0;0;5;0;9200;2;0;0;0;0;0;6;0;6873;2;0;0;0;0;0;7;0;4770;0;0;0;0;8;0;4197;0;0;0;0;9;0;2570;0;0;0;0
26.01.20;21:50:00;1;493;11703;0;2;0;4390;0;0;0;0;3;0;2737;0;0;0;0;4;0;3811;0;0;0;0;5;0;9200;2;0;0;0;0;0;6;0;6873;2;0;0;0;0;0;7;0;4770;0;0;0;0;8;0;4197;0;0;0;0;9;0;2570;0;0;0;0
26.01.20;21:45:00;1;711;11667;0;2;0;4390;0;0;0;0;3;0;2737;0;0;0;0;4;0;3811;0;0;0;0;5;0;9200;2;0;0;0;0;0;6;0;6873;2;0;0;0;0;0;7;0;4770;0;0;0;0;8;0;4197;0;0;0;0;9;0;2570;0;0;0;0
26.01.20;21:40:00;1;322;11610;0;2;0;4390;0;0;0;0;3;0;2737;0;0;0;0;4;0;3811;0;0;0;0;5;0;9200;2;0;0;0;0;0;6;0;6873;2;0;0;0;0;0;7;0;4770;0;0;0;0;8;0;4197;0;0;0;0;9;0;2570;0;0;0;0
26.01.20;21:35:00;1;305;11583;0;2;0;4390;0;0;0;0;3;0;2737;0;0;0;0;4;0;3811;0;0;0;0;5;0;9200;2;0;0;0;0;0;6;0;6873;2;0;0;0;0;0;7;0;4770;0;0;0;0;8;0;4197;0;0;0;0;9;0;2570;0;0;0;0
26.01.20;21:30:00;1;601;11558;0;2;0;4390;0;0;0;0;3;0;2737;0;0;0;0;4;0;3811;0;0;0;0;5;0;9200;2;0;0;0;0;0;6;0;6873;2;0;0;0;0;0;7;0;4770;0;0;0;0;8;0;4197;0;0;0;0;9;0;2570;0;0;0;0
26.01.20;21:25:00;1;325;11504;0;2;0;4390;0;0;0;0;3;0;2737;0;0;0;0;4;0;3811;0;0;0;0;5;0;9200;2;0;0;0;0;0;6;0;6873;2;0;0;0;0;0;7;0;4770;0;0;0;0;8;0;4197;0;0;0;0;9;0;2570;0;0;0;0
26.01.20;21:20:00;1;394;11477;0;2;0;4390;0;0;0;0;3;0;2737;0;0;0;0;4;0;3811;0;0;0;0;5;0;9200;2;0;0;0;0;0;6;0;6873;2;0;0;0;0;0;7;0;4770;0;0;0;0;8;0;4197;0;0;0;0;9;0;2570;0;0;0;0
26.01.20;21:15:00;1;551;11444;0;2;0;4390;0;0;0;0;3;0;2737;0;0;0;0;4;0;3811;0;0;0;0;5;0;9200;2;0;0;0;0;0;6;0;6873;2;0;0;0;0;0;7;0;4770;0;0;0;0;8;0;4197;0;0;0;0;9;0;2570;0;0;0;0
26.01.20;21:10:00;1;409;11380;0;2;0;4390;0;0;0;0;3;0;2737;0;0;0;0;4;0;3811;0;0;0;0;5;0;9200;2;0;0;0;0;0;6;0;6873;2;0;0;0;0;0;7;0;4770;0;0;0;0;8;0;4197;0;0;0;0;9;0;2570;0;0;0;0
26.01.20;21:05:00;1;270;11346;0;2;0;4390;0;0;0;0;3;0;2737;0;0;0;0;4;0;3811;0;0;0;0;5;0;9200;2;0;0;0;0;0;6;0;6873;2;0;0;0;0;0;7;0;4770;0;0;0;0;8;0;4197;0;0;0;0;9;0;2570;0;0;0;0
26.01.20;21:00:00;1;602;11323;0;2;0;4390;0;0;0;0;3;0;2737;0;0;0;0;4;0;3811;0;0;0;0;5;0;9200;2;0;0;0;0;0;6;0;6873;2;0;0;0;0;0;7;0;4770;0;0;0;0;8;0;4197;0;0;0;0;9;0;2570;0;0;0;0
26.01.20;20:55:00;1;265;11272;0;2;0;4390;0;0;0;0;3;0;2737;0;0;0;0;4;0;3811;0;0;0;0;5;0;9200;2;0;0;0;0;0;6;0;6873;2;0;0;0;0;0;7;0;4770;0;0;0;0;8;0;4197;0;0;0;0;9;0;2570;0;0;0;0
26.01.20;20:50:00;1;302;11250;0;2;0;4390;0;0;0;0;3;0;2737;0;0;0;0;4;0;3811;0;0;0;0;5;0;9200;2;0;0;0;0;0;6;0;6873;2;0;0;0;0;0;7;0;4770;0;0;0;0;8;0;4197;0;0;0;0;9;0;2570;0;0;0;0
26.01.20;20:45:00;1;1027;11224;0;2;0;4390;0;0;0;0;3;0;2737;0;0;0;0;4;0;3811;0;0;0;0;5;0;9200;2;0;0;0;0;0;6;0;6873;2;0;0;0;0;0;7;0;4770;0;0;0;0;8;0;4197;0;0;0;0;9;0;2570;0;0;0;0
26.01.20;20:40:00;1;304;11162;0;2;0;4390;0;0;0;0;3;0;2737;0;0;0;0;4;0;3811;0;0;0;0;5;0;9200;2;0;0;0;0;0;6;0;6873;2;0;0;0;0;0;7;0;4770;0;0;0;0;8;0;4197;0;0;0;0;9;0;2570;0;0;0;0
26.01.20;20:35:00;1;301;11137;0;2;0;4390;0;0;0;0;3;0;2737;0;0;0;0;4;0;3811;0;0;0;0;5;0;9200;2;0;0;0;0;0;6;0;6873;2;0;0;0;0;0;7;0;4770;0;0;0;0;8;0;4197;0;0;0;0;9;0;2570;0;0;0;0
26.01.20;20:30:00;1;899;11112;0;2;0;4390;0;0;0;0;3;0;2737;0;0;0;0;4;0;3811;0;0;0;0;5;0;9200;2;0;0;0;0;0;6;0;6873;2;0;0;0;0;0;7;0;4770;0;0;0;0;8;0;4197;0;0;0;0;9;0;2570;0;0;0;0
26.01.20;20:25:00;1;299;11059;0;2;0;4390;0;0;0;0;3;0;2737;0;0;0;0;4;0;3811;0;0;0;0;5;0;9200;2;0;0;0;0;0;6;0;6873;2;0;0;0;0;0;7;0;4770;0;0;0;0;8;0;4197;0;0;0;0;9;0;2570;0;0;0;0
26.01.20;20:20:00;1;328;11033;0;2;0;4390;0;0;0;0;3;0;2737;0;0;0;0;4;0;3811;0;0;0;0;5;0;9200;2;0;0;0;0;0;6;0;6873;2;0;0;0;0;0;7;0;4770;0;0;0;0;8;0;4197;0;0;0;0;9;0;2570;0;0;0;0
26.01.20;20:15:00;1;340;11006;0;2;0;4390;0;0;0;0;3;0;2737;0;0;0;0;4;0;3811;0;0;0;0;5;0;9200;2;0;0;0;0;0;6;0;6873;2;0;0;0;0;0;7;0;4770;0;0;0;0;8;0;4197;0;0;0;0;9;0;2570;0;0;0;0
26.01.20;20:10:00;1;398;10947;0;2;0;4390;0;0;0;0;3;0;2737;0;0;0;0;4;0;3811;0;0;0;0;5;0;9200;2;0;0;0;0;0;6;0;6873;2;0;0;0;0;0;7;0;4770;0;0;0;0;8;0;4197;0;0;0;0;9;0;2570;0;0;0;0
26.01.20;20:05:00;1;330;10916;0;2;0;4390;0;0;0;0;3;0;2737;0;0;0;0;4;0;3811;0;0;0;0;5;0;9200;2;0;0;0;0;0;6;0;6873;2;0;0;0;0;0;7;0;4770;0;0;0;0;8;0;4197;0;0;0;0;9;0;2570;0;0;0;0
26.01.20;20:00:00;1;921;10889;0;2;0;4390;0;0;0;0;3;0;2737;0;0;0;0;4;0;3811;0;0;0;0;5;0;9200;2;0;0;0;0;0;6;0;6873;2;0;0;0;0;0;7;0;4770;0;0;0;0;8;0;4197;0;0;0;0;9;0;2570;0;0;0;0
26.01.20;19:55:00;1;327;10832;0;2;0;4390;0;0;0;0;3;0;2737;0;0;0;0;4;0;3811;0;0;0;0;5;0;9200;2;0;0;0;0;0;6;0;6873;2;0;0;0;0;0;7;0;4770;0;0;0;0;8;0;4197;0;0;0;0;9;0;2570;0;0;0;0
26.01.20;19:50:00;1;262;10805;0;2;0;4390;0;0;0;0;3;0;2737;0;0;0;0;4;0;3811;0;0;0;0;5;0;9200;2;0;0;0;0;0;6;0;6873;2;0;0;0;0;0;7;0;4770;0;0;0;0;8;0;4197;0;0;0;0;9;0;2570;0;0;0;0
26.01.20;19:45:00;1;619;10783;0;2;0;4390;0;0;0;0;3;0;2737;0;0;0;0;4;0;3811;0;0;0;0;5;0;9200;2;0;0;0;0;0;6;0;6873;2;0;0;0;0;0;7;0;4770;0;0;0;0;8;0;4197;0;0;0;0;9;0;2570;0;0;0;0
26.01.20;19:40:00;1;328;10731;0;2;0;4390;0;0;0;0;3;0;2737;0;0;0;0;4;0;3811;0;0;0;0;5;0;9200;2;0;0;0;0;0;6;0;6873;2;0;0;0;0;0;7;0;4770;0;0;0;0;8;0;4197;0;0;0;0;9;0;2570;0;0;0;0
26.01.20;19:35:00;1;335;10703;0;2;0;4390;0;0;0;0;3;0;2737;0;0;0;0;4;0;3811;0;0;0;0;5;0;9200;2;0;0;0;0;0;6;0;6873;2;0;0;0;0;0;7;0;4770;0;0;0;0;8;0;4197;0;0;0;0;9;0;2570;0;0;0;0
26.01.20;19:30:00;1;615;10675;0;2;0;4390;0;0;0;0;3;0;2737;0;0;0;0;4;0;3811;0;0;0;0;5;0;9200;2;0;0;0;0;0;6;0;6873;2;0;0;0;0;0;7;0;4770;0;0;0;0;8;0;4197;0;0;0;0;9;0;2570;0;0;0;0
26.01.20;19:25:00;1;339;10623;0;2;0;4390;0;0;0;0;3;0;2737;0;0;0;0;4;0;3811;0;0;0;0;5;0;9200;2;0;0;0;0;0;6;0;6873;2;0;0;0;0;0;7;0;4770;0;0;0;0;8;0;4197;0;0;0;0;9;0;2570;0;0;0;0
26.01.20;19:20:00;1;307;10593;0;2;0;4390;0;0;0;0;3;0;2737;0;0;0;0;4;0;3811;0;0;0;0;5;0;9200;2;0;0;0;0;0;6;0;6873;2;0;0;0;0;0;7;0;4770;0;0;0;0;8;0;4197;0;0;0;0;9;0;2570;0;0;0;0
26.01.20;19:15:00;1;712;10568;0;2;0;4390;0;0;0;0;3;0;2737;0;0;0;0;4;0;3811;0;0;0;0;5;0;9200;2;0;0;0;0;0;6;0;6873;2;0;0;0;0;0;7;0;4770;0;0;0;0;8;0;4197;0;0;0;0;9;0;2570;0;0;0;0
26.01.20;19:10:00;1;255;10515;0;2;0;4390;0;0;0;0;3;0;2737;0;0;0;0;4;0;3811;0;0;0;0;5;0;9200;2;0;0;0;0;0;6;0;6873;2;0;0;0;0;0;7;0;4770;0;0;0;0;8;0;4197;0;0;0;0;9;0;2570;0;0;0;0
26.01.20;19:05:00;1;296;10493;0;2;0;4390;0;0;0;0;3;0;2737;0;0;0;0;4;0;3811;0;0;0;0;5;0;9200;2;0;0;0;0;0;6;0;6873;2;0;0;0;0;0;7;0;4770;0;0;0;0;8;0;4197;0;0;0;0;9;0;2570;0;0;0;0
26.01.20;19:00:00;1;264;10468;0;2;0;4390;0;0;0;0;3;0;2737;0;0;0;0;4;0;3811;0;0;0;0;5;0;9200;2;0;0;0;0;0;6;0;6873;2;0;0;0;0;0;7;0;4770;0;0;0;0;8;0;4197;0;0;0;0;9;0;2570;0;0;0;0
26.01.20;18:55:00;1;253;10420;0;2;0;4390;0;0;0;0;3;0;2737;0;0;0;0;4;0;3811;0;0;0;0;5;0;9200;2;0;0;0;0;0;6;0;6873;2;0;0;0;0;0;7;0;4770;0;0;0;0;8;0;4197;0;0;0;0;9;0;2570;0;0;0;0
26.01.20;18:50:00;1;253;10399;0;2;0;4390;0;0;0;0;3;0;2737;0;0;0;0;4;0;3811;0;0;0;0;5;0;9200;2;0;0;0;0;0;6;0;6873;2;0;0;0;0;0;7;0;4770;0;0;0;0;8;0;4197;0;0;0;0;9;0;2570;0;0;0;0
26.01.20;18:45:00;1;286;10378;0;2;0;4390;0;0;0;0;3;0;2737;0;0;0;0;4;0;3811;0;0;0;0;5;0;9200;2;0;0;0;0;0;6;0;6873;2;0;0;0;0;0;7;0;4770;0;0;0;0;8;0;4197;0;0;0;0;9;0;2570;0;0;0;0
26.01.20;18:40:00;1;269;10330;0;2;0;4390;0;0;0;0;3;0;2737;0;0;0;0;4;0;3811;0;0;0;0;5;0;9200;2;0;0;0;0;0;6;0;6873;2;0;0;0;0;0;7;0;4770;0;0;0;0;8;0;4197;0;0;0;0;9;0;2570;0;0;0;0
26.01.20;18:35:00;1;315;10307;0;2;0;4390;0;0;0;0;3;0;2737;0;0;0;0;4;0;3811;0;0;0;0;5;0;9200;2;0;0;0;0;0;6;0;6873;2;0;0;0;0;0;7;0;4770;0;0;0;0;8;0;4197;0;0;0;0;9;0;2570;0;0;0;0
26.01.20;18:30:00;1;427;10280;0;2;0;4390;0;0;0;0;3;0;2737;0;0;0;0;4;0;3811;0;0;0;0;5;0;9200;2;0;0;0;0;0;6;0;6873;2;0;0;0;0;0;7;0;4770;0;0;0;0;8;0;4197;0;0;0;0;9;0;2570;0;0;0;0
26.01.20;18:25:00;1;431;10219;0;2;0;4390;0;0;0;0;3;0;2737;0;0;0;0;4;0;3811;0;0;0;0;5;0;9200;2;0;0;0;0;0;6;0;6873;2;0;0;0;0;0;7;0;4770;0;0;0;0;8;0;4197;0;0;0;0;9;0;2570;0;0;0;0
26.01.20;18:20:00;1;540;10180;0;2;0;4390;0;0;0;0;3;0;2737;0;0;0;0;4;0;3811;0;0;0;0;5;0;9200;2;0;0;0;0;0;6;0;6873;2;0;0;0;0;0;7;0;4770;0;0;0;0;8;0;4197;0;0;0;0;9;0;2570;0;0;0;0
26.01.20;18:15:00;1;526;10107;0;2;0;4390;0;0;0;0;3;0;2737;0;0;0;0;4;0;3811;0;0;0;0;5;0;9200;2;0;0;0;0;0;6;0;6873;2;0;0;0;0;0;7;0;4770;0;0;0;0;8;0;4197;0;0;0;0;9;0;2570;0;0;0;0
26.01.20;18:10:00;1;531;10063;0;2;0;4390;0;0;0;0;3;0;2737;0;0;0;0;4;0;3811;0;0;0;0;5;0;9200;2;0;0;0;0;0;6;0;6873;2;0;0;0;0;0;7;0;4770;0;0;0;0;8;0;4197;0;0;0;0;9;0;2570;0;0;0;0
26.01.20;18:05:00;1;526;10019;0;2;0;4390;0;0;0;0;3;0;2737;0;0;0;0;4;0;3811;0;0;0;0;5;0;9200;2;0;0;0;0;0;6;0;6873;2;0;0;0;0;0;7;0;4770;0;0;0;0;8;0;4197;0;0;0;0;9;0;2570;0;0;0;0
26.01.20;18:00:00;1;1144;9960;0;2;0;4390;0;0;0;0;3;0;2737;0;0;0;0;4;0;3811;0;0;0;0;5;0;9200;2;0;0;0;0;0;6;0;6873;2;0;0;0;0;0;7;0;4770;0;0;0;0;8;0;4197;0;0;0;0;9;0;2570;0;0;0;0
26.01.20;17:55:00;1;606;9899;0;2;0;4390;0;0;0;0;3;0;2737;0;0;0;0;4;0;3811;0;0;0;0;5;0;9200;2;0;0;0;0;0;6;0;6873;2;0;0;0;0;0;7;0;4770;0;0;0;0;8;0;4197;0;0;0;0;9;0;2570;0;0;0;0
26.01.20;17:50:00;1;785;9850;0;2;0;4390;0;0;0;0;3;0;2737;0;0;0;0;4;0;3811;0;0;0;0;5;0;9200;2;0;0;0;0;0;6;0;6873;2;0;0;0;0;0;7;0;4770;0;0;0;0;8;0;4197;0;0;0;0;9;0;2570;0;0;0;0
26.01.20;17:45:00;1;492;9780;0;2;0;4390;0;0;0;0;3;0;2737;0;0;0;0;4;0;3811;0;0;0;0;5;0;9200;2;0;0;0;0;0;6;0;6873;2;0;0;0;0;0;7;0;4770;0;0;0;0;8;0;4197;0;0;0;0;9;0;2570;0;0;0;0
26.01.20;17:40:00;1;554;9739;0;2;0;4390;0;0;0;0;3;0;2737;0;0;0;0;4;0;3811;0;0;0;0;5;0;9200;2;0;0;0;0;0;6;0;6873;2;0;0;0;0;0;7;0;4770;0;0;0;0;8;0;4197;0;0;0;0;9;0;2570;0;0;0;0
26.01.20;17:35:00;1;915;9693;0;2;0;4390;0;0;0;0;3;0;2737;0;0;0;0;4;0;3811;0;0;0;0;5;0;9200;2;0;0;0;0;0;6;0;6873;2;0;0;0;0;0;7;0;4770;0;0;0;0;8;0;4197;0;0;0;0;9;0;2570;0;0;0;0
26.01.20;17:30:00;1;568;9617;0;2;0;4390;0;0;0;0;3;0;2737;0;0;0;0;4;0;3811;0;0;0;0;5;0;9200;2;0;0;0;0;0;6;0;6873;2;0;0;0;0;0;7;0;4770;0;0;0;0;8;0;4197;0;0;0;0;9;0;2570;0;0;0;0
26.01.20;17:25:00;1;599;9570;0;2;0;4390;0;0;0;0;3;0;2737;0;0;0;0;4;0;3811;0;0;0;0;5;0;9200;2;0;0;0;0;0;6;0;6873;2;0;0;0;0;0;7;0;4770;0;0;0;0;8;0;4197;0;0;0;0;9;0;2570;0;0;0;0
26.01.20;17:20:00;1;1259;9519;0;2;0;4390;0;0;0;0;3;0;2737;0;0;0;0;4;0;3811;0;0;0;0;5;0;9200;2;0;0;0;0;0;6;0;6873;2;0;0;0;0;0;7;0;4770;0;0;0;0;8;0;4197;0;0;0;0;9;0;2570;0;0;0;0
26.01.20;17:15:00;1;547;9440;0;2;0;4390;0;0;128;4;3;0;2737;0;0;231;10;4;0;3811;0;0;0;0;5;0;9200;2;0;0;0;0;0;6;0;6873;2;0;0;0;0;0;7;0;4770;0;0;0;0;8;0;4197;0;0;0;0;9;0;2570;0;0;0;0
26.01.20;17:10:00;1;496;9394;0;2;0;4390;6;0;304;8;3;0;2737;6;0;350;12;4;0;3811;0;0;64;6;5;0;9200;2;0;0;0;0;0;6;0;6873;2;0;0;0;0;0;7;0;4770;0;0;0;0;8;0;4197;0;0;0;0;9;0;2570;0;0;0;0
26.01.20;17:05:00;1;493;9353;0;2;0;4390;6;0;347;8;3;0;2737;6;2;411;12;4;0;3811;1;0;114;8;5;0;9200;2;0;0;281;280;15;6;0;6873;2;4;3;144;319;15;7;0;4770;0;0;104;4;8;0;4197;0;0;105;4;9;0;2570;0;0;215;6
26.01.20;17:00:00;1;492;9283;0;2;0;4390;6;0;378;9;3;0;2737;4;3;436;12;4;0;3811;1;0;162;9;5;0;9200;23;0;0;406;496;20;6;0;6873;23;6;4;181;532;19;7;0;4770;6;0;324;12;8;0;4197;6;0;329;12;9;0;2570;6;0;169;4
26.01.20;16:55:00;1;497;9241;0;2;0;4390;6;0;398;9;3;1;2737;6;3;479;12;4;0;3811;1;0;202;9;5;7;9200;1;0;2;411;632;20;6;0;6873;23;5;4;182;567;19;7;0;4770;6;0;381;12;8;0;4197;6;0;395;12;9;0;2570;0;0;349;7
26.01.20;16:50:00;1;1016;9199;0;2;2;4390;6;7;404;9;3;2;2737;6;5;505;12;4;0;3811;3;0;211;9;5;58;9199;1;9;14;391;622;21;6;18;6873;1;8;20;544;535;20;7;3;4770;6;4;414;13;8;0;4197;6;2;438;12;9;1;2570;3;2;457;9
26.01.20;16:45:00;1;491;9129;0;2;6;4390;6;10;414;9;3;3;2737;6;13;486;12;4;0;3811;3;0;200;10;5;95;9194;4;29;32;381;606;21;6;59;6871;4;15;24;451;457;21;7;0;4770;6;4;462;13;8;0;4197;6;5;467;12;9;0;2570;6;4;512;9
26.01.20;16:40:00;1;488;9088;0;2;40;4390;6;59;375;10;3;3;2737;6;10;532;12;4;13;3811;3;13;199;10;5;134;9186;4;50;47;381;605;21;6;84;6865;4;37;49;451;457;21;7;6;4770;6;9;484;13;8;10;4197;6;18;456;13;9;0;2570;6;5;415;7
26.01.20;16:35:00;1;975;9047;0;2;66;4387;4;91;363;10;3;5;2736;6;11;540;13;4;19;3810;3;19;198;10;5;165;9174;4;66;63;381;606;21;6;103;6858;4;38;50;451;457;21;7;33;4769;6;56;386;13;8;37;4197;6;55;397;13;9;3;2570;6;7;544;9
26.01.20;16:30:00;1;489;8982;0;2;88;4381;4;114;371;10;3;7;2736;4;14;542;13;4;42;3809;3;44;197;10;5;198;9160;4;95;77;381;606;21;6;130;6849;4;58;78;451;457;21;7;67;4767;4;90;398;13;8;54;4194;4;94;454;13;9;5;2569;6;10;553;9
26.01.20;16:25:00;1;520;8941;0;2;106;4374;4;132;366;10;3;56;2735;4;91;444;13;4;57;3805;3;59;197;10;5;231;9144;4;109;98;381;606;21;6;151;6838;4;71;93;450;456;21;7;68;4760;0;95;331;10;8;80;4189;4;116;446;13;9;0;2569;6;0;588;9
26.01.20;16:20:00;1;1094;8896;0;2;124;4365;4;156;381;10;3;72;2730;4;103;451;13;4;75;3800;3;78;198;10;5;266;9124;4;122;112;381;606;21;6;174;6825;4;75;89;450;457;21;7;84;4754;4;106;317;10;8;104;4183;4;139;403;13;9;21;2569;4;30;534;9
26.01.20;16:15:00;1;699;8818;0;2;143;4355;4;174;386;10;3;82;2724;4;118;476;13;4;95;3794;3;99;211;10;5;296;9102;4;143;124;381;606;21;6;194;6810;4;83;95;451;457;21;7;131;4746;4;155;387;13;8;130;4174;4;159;411;13;9;15;2567;6;19;576;10
26.01.20;16:10:00;1;597;8767;0;2;169;4343;4;199;382;11;3;98;2717;4;136;496;13;4;124;3786;5;128;226;10;5;338;9077;4;170;147;381;606;21;6;221;6794;4;103;119;451;457;21;7;131;4735;4;157;361;11;8;131;4163;4;152;333;10;9;81;2565;4;108;485;10
26.01.20;16:05:00;1;1152;8717;0;2;193;4329;4;223;387;11;3;109;2709;4;151;511;14;4;138;3776;5;144;227;10;5;384;9048;4;192;171;393;606;21;6;250;6775;4;130;149;450;458;21;7;183;4722;4;212;412;14;8;180;4150;4;214;414;13;9;96;2558;4;121;488;10
26.01.20;16:00:00;1;555;8639;0;2;215;4313;4;248;395;11;3;130;2700;4;167;493;14;4;164;3764;5;171;230;10;5;429;9016;4;215;187;389;606;21;6;298;6754;4;144;185;451;548;21;7;168;4706;4;192;342;11;8;84;4135;4;99;180;5;9;68;2550;4;82;300;6
26.01.20;15:55:00;1;565;8592;0;2;231;4295;4;267;392;11;3;137;2689;4;177;514;14;4;183;3750;5;191;231;10;5;467;8979;4;225;200;401;615;21;6;333;6729;4;145;177;506;561;21;7;136;4682;0;162;276;8;8;237;4118;4;274;453;13;9;100;2539;0;122;416;8
26.01.20;15:50:00;1;1100;8545;0;2;248;4276;4;280;392;11;3;149;2678;4;190;514;14;4;190;3735;5;198;232;10;5;498;8940;4;256;215;406;624;21;6;382;6700;4;192;214;583;562;21;7;244;4670;4;288;469;14;8;253;4098;4;285;470;13;9;136;2531;4;161;504;10
26.01.20;15:45:00;1;532;8476;0;2;263;4255;4;296;387;11;3;158;2665;4;198;515;14;4;210;3719;5;218;233;10;5;535;8898;4;278;230;412;608;21;6;407;6669;4;204;236;571;561;21;7;267;4650;4;308;466;14;8;268;4078;4;304;479;13;9;140;2520;4;169;531;11
26.01.20;15:40:00;1;500;8432;0;2;291;4233;4;326;394;11;3;178;2652;4;217;482;14;4;235;3702;5;245;235;10;5;600;8853;4;300;252;410;641;21;6;449;6634;4;209;228;590;563;21;7;229;4628;4;263;374;11;8;238;4055;4;270;370;10;9;160;2508;4;190;522;11
26.01.20;15:35:00;1;963;8391;0;2;316;4209;4;354;400;11;3;190;2637;4;231;476;14;4;258;3682;5;268;237;10;5;647;8804;4;318;280;408;675;21;6;486;6597;4;241;261;587;561;21;7;332;4604;4;360;472;14;8;325;4030;4;360;477;13;9;178;2495;4;205;519;11
26.01.20;15:30:00;1;485;8321;0;2;339;4183;4;375;405;11;3;210;2622;4;248;496;14;4;282;3661;5;293;239;11;5;707;8749;4;343;305;420;681;21;6;524;6556;4;258;278;581;572;21;7;349;4576;4;397;474;14;8;352;4003;4;393;486;13;9;192;2480;4;222;515;11
26.01.20;15:25:00;1;498;8281;0;2;357;4154;4;396;405;11;3;223;2604;4;263;507;14;4;298;3637;5;310;239;11;5;743;8690;4;371;316;413;679;21;6;552;6512;4;266;293;583;570;21;7;374;4548;4;418;469;14;8;382;3974;4;422;480;13;9;204;2464;4;233;504;11
26.01.20;15:20:00;1;1286;8239;0;2;377;4125;4;416;405;11;3;233;2586;4;279;504;14;4;319;3612;5;332;238;11;5;778;8628;4;391;334;418;665;21;6;581;6466;4;291;309;576;570;21;7;401;4517;4;441;447;14;8;410;3943;4;446;468;14;9;216;2447;4;247;517;11
26.01.20;15:15:00;1;526;8164;0;2;389;4093;4;428;406;12;3;243;2566;4;287;507;14;4;327;3586;5;341;239;11;5;820;8563;4;415;352;423;688;21;6;601;6417;4;287;309;582;567;21;7;424;4483;4;464;470;14;8;425;3908;4;470;473;14;9;227;2429;4;257;512;11
26.01.20;15:10:00;1;575;8119;0;2;401;4061;4;440;405;12;3;249;2546;4;292;509;14;4;337;3559;5;351;238;11;5;844;8496;4;425;361;418;694;21;6;624;6367;4;312;326;586;567;21;7;366;4448;4;391;400;11;8;288;3873;4;313;303;9;9;115;2410;4;131;266;5
26.01.20;15:05:00;1;1000;8072;0;2;408;4027;4;448;406;12;3;256;2525;4;298;512;14;4;343;3531;5;358;240;11;5;863;8426;4;438;372;419;693;21;6;641;6314;4;319;339;584;572;21;7;436;4411;4;478;486;14;8;441;3837;4;482;464;14;9;234;2391;4;268;514;11
26.01.20;15:00:00;1;533;7996;0;2;423;3993;4;462;409;12;3;261;2504;4;306;519;14;4;357;3502;5;371;241;11;5;879;8354;4;442;378;416;690;21;6;653;6260;4;325;349;578;570;21;7;439;4375;4;489;466;14;8;454;3800;4;494;488;14;9;239;2371;4;272;504;11
26.01.20;14:55:00;1;489;7952;0;2;430;3958;4;469;405;12;3;266;2482;4;312;514;14;4;365;3472;5;380;241;11;5;882;8280;4;456;389;419;701;21;6;673;6206;4;345;354;591;572;21;7;441;4338;4;496;464;14;8;466;3762;4;505;487;14;9;244;2351;4;278;512;11
26.01.20;14:50:00;1;495;7911;0;2;437;3922;4;479;406;12;3;271;2460;4;317;519;14;4;377;3442;5;393;242;11;5;899;8206;4;456;393;423;694;21;6;680;6149;4;336;348;593;576;21;7;463;4301;4;507;476;14;8;469;3724;4;510;470;14;9;208;2331;4;236;428;9
26.01.20;14:45:00;1;491;7838;0;2;447;3886;4;489;402;12;3;279;2437;4;328;517;14;4;383;3410;5;399;242;11;5;931;8130;4;471;396;418;673;21;6;691;6093;4;328;343;586;575;21;7;83;4234;0;87;80;2;8;79;3684;4;86;79;2;9;0;2240;0;0;0;0
26.01.20;14:40:00;1;522;7797;0;2;473;3849;4;517;404;12;3;294;2414;4;341;525;15;4;405;3378;5;422;239;11;5;970;8052;4;499;415;418;678;21;6;727;6035;4;376;395;591;572;21;7;332;4224;4;362;316;9;8;256;3645;4;275;236;7;9;0;2240;0;0;0;0
26.01.20;14:35:00;1;1086;7747;0;2;496;3809;4;537;400;12;3;307;2389;4;356;527;15;4;425;3345;5;443;245;11;5;1024;7971;4;518;436;419;686;21;6;760;5974;4;359;371;593;569;21;7;214;4170;0;227;184;5;8;0;3545;0;0;0;0;9;0;2240;0;0;0;0
26.01.20;14:30:00;1;2580;7629;0;2;524;3768;4;566;406;12;3;329;2364;4;380;520;15;4;451;3309;5;470;241;11;5;1058;7887;4;547;457;419;689;21;6;800;5910;4;420;431;593;571;21;7;334;4122;0;359;287;8;8;449;3545;0;485;388;11;9;182;2240;0;203;314;7
26.01.20;14:25:00;1;2603;7415;0;2;546;3724;4;590;407;12;3;345;2336;4;393;511;15;4;472;3272;5;492;241;11;5;1127;7798;4;566;484;423;687;21;6;838;5843;4;421;437;592;574;21;7;0;3928;0;0;0;0;8;98;3513;4;102;80;2;9;0;2197;0;0;0;0
26.01.20;14:20:00;1;2377;7170;0;2;579;3679;4;625;410;13;3;364;2308;4;418;522;15;4;503;3232;5;524;244;11;5;1176;7705;4;612;516;418;696;21;6;892;5773;4;453;474;595;570;21;7;0;3928;0;0;0;0;8;0;3513;0;0;0;0;9;46;2197;4;52;76;1
26.01.20;14:15:00;1;1681;7001;0;2;613;3631;4;660;410;13;3;387;2277;4;436;519;15;4;534;3190;5;557;243;11;5;1241;7606;4;641;541;427;688;21;6;942;5699;4;504;535;597;576;21;7;0;3928;0;0;0;0;8;0;3513;0;0;0;0;9;0;2143;0;0;0;0
26.01.20;14:10:00;1;1701;6843;0;2;636;3580;4;684;413;13;3;404;2245;4;456;517;15;4;558;3146;5;581;243;11;5;1293;7502;4;672;562;426;687;21;6;984;5620;4;493;515;596;577;21;7;236;3928;0;249;162;4;8;0;3513;0;0;0;0;9;121;2143;4;137;178;4
26.01.20;14:05:00;1;664;6743;0;2;666;3527;4;715;414;13;3;419;2211;4;472;521;15;4;580;3099;5;604;245;11;5;1346;7393;4;687;584;422;702;21;6;1020;5538;4;549;569;597;578;21;7;120;3890;0;127;83;2;8;0;3513;0;0;0;0;9;65;2097;0;72;90;2
26.01.20;14:00:00;1;971;6687;0;2;702;3471;4;752;413;13;3;440;2176;4;494;528;15;4;615;3051;5;641;245;11;5;1419;7280;4;742;619;428;711;21;6;1074;5452;4;533;547;590;578;21;7;126;3817;0;134;80;2;8;393;3513;0;415;239;7;9;70;2053;0;77;89;2
26.01.20;13:55:00;1;2958;6584;0;2;736;3413;4;789;411;13;3;467;2140;4;520;517;15;4;652;3000;5;679;245;11;5;1490;7161;4;768;649;426;703;21;6;1123;5363;4;571;570;600;576;21;7;136;3758;0;143;81;2;8;0;3326;0;0;0;0;9;213;2048;4;237;270;6